Time,TemperatureF,DewpointF,PressureIn,WindDirection,WindDirectionDegrees,WindSpeedMPH,WindSpeedGustMPH,Humidity,HourlyPrecipIn,Conditions,Clouds,dailyrainin,SoftwareType,DateUTC
2017-02-25 00:01:00,53.1,43.0,28.83,West,270,8.0,20.0,70,0.00,,,0.00,,2017-02-25 05:01:00,
2017-02-25 00:07:00,52.6,42.0,28.84,West,270,12.0,-999.0,69,0.00,,,0.00,,2017-02-25 05:07:00,
2017-02-25 00:12:00,52.5,42.0,28.84,West,270,13.0,-999.0,69,0.00,,,0.00,,2017-02-25 05:12:00,
2017-02-25 00:17:00,52.2,41.0,28.83,West,270,11.0,-999.0,68,0.00,,,0.00,,2017-02-25 05:17:00,
2017-02-25 00:23:00,52.2,41.0,28.83,West,270,11.0,-999.0,68,0.00,,,0.00,,2017-02-25 05:23:00,
2017-02-25 00:28:00,51.8,41.0,28.83,West,270,10.0,-999.0,69,0.00,,,0.00,,2017-02-25 05:28:00,
2017-02-25 00:34:00,51.4,41.0,28.83,West,270,11.0,-999.0,70,0.00,,,0.00,,2017-02-25 05:34:00,
2017-02-25 00:39:00,51.4,42.0,28.85,West,270,13.0,-999.0,70,0.00,,,0.00,,2017-02-25 05:39:00,
2017-02-25 00:45:00,51.4,42.0,28.85,West,270,8.0,-999.0,70,0.00,,,0.00,,2017-02-25 05:45:00,
2017-02-25 00:50:00,51.4,42.0,28.87,SW,225,2.0,-999.0,71,0.00,,,0.00,,2017-02-25 05:50:00,
2017-02-25 00:55:00,51.3,42.0,28.87,West,270,3.0,-999.0,73,0.00,,,0.00,,2017-02-25 05:55:00,
2017-02-25 01:01:00,51.0,42.0,28.87,NW,315,3.0,-999.0,73,0.00,,,0.00,,2017-02-25 06:01:00,
2017-02-25 01:06:00,50.9,42.0,28.87,West,270,3.0,-999.0,73,0.00,,,0.00,,2017-02-25 06:06:00,
2017-02-25 01:12:00,50.7,42.0,28.87,West,270,7.0,-999.0,73,0.00,,,0.00,,2017-02-25 06:12:00,
2017-02-25 01:17:00,50.5,42.0,28.86,West,270,11.0,-999.0,73,0.00,,,0.00,,2017-02-25 06:17:00,
2017-02-25 01:22:00,50.3,42.0,28.87,West,270,8.0,-999.0,74,0.00,,,0.00,,2017-02-25 06:22:00,
2017-02-25 01:28:00,50.1,42.0,28.86,West,270,8.0,-999.0,75,0.00,,,0.00,,2017-02-25 06:28:00,
2017-02-25 01:33:00,50.0,42.0,28.87,WNW,293,10.0,-999.0,75,0.00,,,0.00,,2017-02-25 06:33:00,
2017-02-25 01:38:00,49.8,42.0,28.87,West,270,12.0,-999.0,75,0.00,,,0.00,,2017-02-25 06:38:00,
2017-02-25 01:44:00,49.2,42.0,28.87,West,270,13.0,-999.0,75,0.00,,,0.00,,2017-02-25 06:44:00,
2017-02-25 01:49:00,48.6,41.0,28.87,West,270,9.0,-999.0,75,0.00,,,0.00,,2017-02-25 06:49:00,
2017-02-25 01:55:00,48.4,41.0,28.87,West,270,12.0,-999.0,78,0.00,,,0.00,,2017-02-25 06:55:00,
2017-02-25 02:00:00,48.0,41.0,28.87,NW,315,11.0,-999.0,78,0.00,,,0.00,,2017-02-25 07:00:00,
2017-02-25 02:05:00,47.7,41.0,28.86,West,270,7.0,-999.0,79,0.00,,,0.00,,2017-02-25 07:05:00,
2017-02-25 02:11:00,47.6,41.0,28.88,West,270,7.0,-999.0,79,0.00,,,0.00,,2017-02-25 07:11:00,
2017-02-25 02:17:00,47.5,41.0,28.87,NW,315,7.0,-999.0,80,0.00,,,0.00,,2017-02-25 07:17:00,
2017-02-25 02:23:00,47.5,41.0,28.89,West,270,6.0,-999.0,79,0.00,,,0.00,,2017-02-25 07:23:00,
2017-02-25 02:29:00,47.3,41.0,28.89,West,270,8.0,-999.0,79,0.00,,,0.00,,2017-02-25 07:29:00,
2017-02-25 02:34:00,47.1,40.0,28.89,WNW,293,8.0,-999.0,79,0.00,,,0.00,,2017-02-25 07:34:00,
2017-02-25 02:40:00,46.7,40.0,28.88,West,270,9.0,-999.0,79,0.00,,,0.00,,2017-02-25 07:40:00,
2017-02-25 02:45:00,46.5,40.0,28.89,WNW,293,6.0,-999.0,78,0.00,,,0.00,,2017-02-25 07:45:00,
2017-02-25 02:50:00,46.1,39.0,28.88,West,270,8.0,-999.0,78,0.00,,,0.00,,2017-02-25 07:50:00,
2017-02-25 02:56:00,46.1,39.0,28.89,West,270,6.0,-999.0,78,0.00,,,0.00,,2017-02-25 07:56:00,
2017-02-25 03:01:00,45.9,39.0,28.88,West,270,6.0,-999.0,78,0.00,,,0.00,,2017-02-25 08:01:00,
2017-02-25 03:06:00,45.9,39.0,28.89,WSW,248,1.0,-999.0,79,0.00,,,0.00,,2017-02-25 08:06:00,
2017-02-25 03:12:00,45.7,39.0,28.88,West,270,3.0,-999.0,79,0.00,,,0.00,,2017-02-25 08:12:00,
2017-02-25 03:17:00,45.7,39.0,28.88,West,270,3.0,-999.0,80,0.00,,,0.00,,2017-02-25 08:17:00,
2017-02-25 03:23:00,45.7,39.0,28.89,West,270,10.0,-999.0,79,0.00,,,0.00,,2017-02-25 08:23:00,
2017-02-25 03:28:00,45.9,39.0,28.88,West,270,6.0,-999.0,79,0.00,,,0.00,,2017-02-25 08:28:00,
2017-02-25 03:33:00,45.9,39.0,28.88,West,270,8.0,-999.0,79,0.00,,,0.00,,2017-02-25 08:33:00,
2017-02-25 03:38:00,45.9,39.0,28.88,West,270,11.0,-999.0,76,0.00,,,0.00,,2017-02-25 08:38:00,
2017-02-25 03:44:00,45.9,39.0,28.88,West,270,10.0,-999.0,78,0.00,,,0.00,,2017-02-25 08:44:00,
2017-02-25 03:49:00,45.9,39.0,28.88,West,270,5.0,-999.0,76,0.00,,,0.00,,2017-02-25 08:49:00,
2017-02-25 03:54:00,45.5,37.0,28.88,West,270,6.0,-999.0,73,0.00,,,0.00,,2017-02-25 08:54:00,
2017-02-25 03:59:00,45.0,36.0,28.88,West,270,10.0,-999.0,71,0.00,,,0.00,,2017-02-25 08:59:00,
2017-02-25 04:05:00,44.4,33.0,28.88,West,270,13.0,-999.0,65,0.00,,,0.00,,2017-02-25 09:05:00,
2017-02-25 04:10:00,43.9,32.0,28.89,West,270,12.0,-999.0,65,0.00,,,0.00,,2017-02-25 09:10:00,
2017-02-25 04:15:00,43.6,33.0,28.89,West,270,10.0,-999.0,65,0.00,,,0.00,,2017-02-25 09:15:00,
2017-02-25 04:21:00,43.2,33.0,28.90,West,270,13.0,-999.0,66,0.00,,,0.00,,2017-02-25 09:21:00,
2017-02-25 04:26:00,43.2,33.0,28.90,West,270,9.0,-999.0,68,0.00,,,0.00,,2017-02-25 09:26:00,
2017-02-25 04:31:00,43.2,33.0,28.90,West,270,6.0,-999.0,68,0.00,,,0.00,,2017-02-25 09:31:00,
2017-02-25 04:37:00,43.2,33.0,28.91,West,270,6.0,-999.0,69,0.00,,,0.00,,2017-02-25 09:37:00,
2017-02-25 04:42:00,43.2,33.0,28.92,West,270,6.0,-999.0,69,0.00,,,0.00,,2017-02-25 09:42:00,
2017-02-25 04:47:00,43.2,33.0,28.92,WSW,248,4.0,-999.0,69,0.00,,,0.00,,2017-02-25 09:47:00,
2017-02-25 04:53:00,42.7,33.0,28.92,West,270,4.0,-999.0,69,0.00,,,0.00,,2017-02-25 09:53:00,
2017-02-25 04:58:00,42.7,32.0,28.91,WSW,248,10.0,-999.0,68,0.00,,,0.00,,2017-02-25 09:58:00,
2017-02-25 05:04:00,42.5,32.0,28.91,West,270,8.0,-999.0,68,0.00,,,0.00,,2017-02-25 10:04:00,
2017-02-25 05:09:00,42.4,32.0,28.91,West,270,6.0,-999.0,68,0.00,,,0.00,,2017-02-25 10:09:00,
2017-02-25 05:14:00,42.3,32.0,28.90,West,270,15.0,-999.0,68,0.00,,,0.00,,2017-02-25 10:14:00,
2017-02-25 05:20:00,42.3,32.0,28.91,West,270,9.0,-999.0,68,0.00,,,0.00,,2017-02-25 10:20:00,
2017-02-25 05:25:00,42.3,32.0,28.91,West,270,10.0,-999.0,69,0.00,,,0.00,,2017-02-25 10:25:00,
2017-02-25 05:31:00,42.1,32.0,28.91,West,270,12.0,-999.0,69,0.00,,,0.00,,2017-02-25 10:31:00,
2017-02-25 05:36:00,41.9,32.0,28.91,West,270,8.0,-999.0,69,0.00,,,0.00,,2017-02-25 10:36:00,
2017-02-25 05:41:00,41.5,32.0,28.91,West,270,7.0,-999.0,70,0.00,,,0.00,,2017-02-25 10:41:00,
2017-02-25 05:47:00,41.1,32.0,28.91,West,270,3.0,-999.0,70,0.00,,,0.00,,2017-02-25 10:47:00,
2017-02-25 05:52:00,40.9,32.0,28.91,SW,225,3.0,-999.0,70,0.00,,,0.00,,2017-02-25 10:52:00,
2017-02-25 05:54:00,40.9,32.0,28.92,SW,225,4.0,-999.0,70,0.00,,,0.00,,2017-02-25 10:54:00,
2017-02-25 05:59:00,40.5,32.0,28.91,West,270,5.0,-999.0,71,0.00,,,0.00,,2017-02-25 10:59:00,
2017-02-25 06:05:00,40.5,32.0,28.91,SW,225,5.0,-999.0,73,0.00,,,0.00,,2017-02-25 11:05:00,
2017-02-25 06:10:00,40.5,32.0,28.92,WSW,248,4.0,-999.0,73,0.00,,,0.00,,2017-02-25 11:10:00,
2017-02-25 06:16:00,40.5,32.0,28.92,SSW,203,3.0,-999.0,73,0.00,,,0.00,,2017-02-25 11:16:00,
2017-02-25 06:21:00,40.2,32.0,28.92,SW,225,4.0,-999.0,73,0.00,,,0.00,,2017-02-25 11:21:00,
2017-02-25 06:26:00,40.0,32.0,28.92,SW,225,2.0,-999.0,73,0.00,,,0.00,,2017-02-25 11:26:00,
2017-02-25 06:32:00,39.9,31.0,28.92,SW,225,4.0,-999.0,73,0.00,,,0.00,,2017-02-25 11:32:00,
2017-02-25 06:37:00,39.9,31.0,28.92,SSW,203,6.0,-999.0,73,0.00,,,0.00,,2017-02-25 11:37:00,
2017-02-25 06:42:00,39.7,31.0,28.92,SW,225,4.0,-999.0,73,0.00,,,0.00,,2017-02-25 11:42:00,
2017-02-25 06:48:00,39.9,31.0,28.93,SW,225,3.0,-999.0,73,0.00,,,0.00,,2017-02-25 11:48:00,
2017-02-25 06:53:00,39.9,31.0,28.93,SSW,203,4.0,-999.0,73,0.00,,,0.00,,2017-02-25 11:53:00,
2017-02-25 06:59:00,39.7,31.0,28.93,South,180,3.0,-999.0,73,0.00,,,0.00,,2017-02-25 11:59:00,
2017-02-25 07:04:00,39.9,31.0,28.92,SSW,203,4.0,-999.0,73,0.00,,,0.00,,2017-02-25 12:04:00,
2017-02-25 07:09:00,39.9,32.0,28.93,SSW,203,3.0,-999.0,74,0.00,,,0.00,,2017-02-25 12:09:00,
2017-02-25 07:15:00,40.5,32.0,28.93,SSW,203,4.0,-999.0,73,0.00,,,0.00,,2017-02-25 12:15:00,
2017-02-25 07:20:00,40.5,32.0,28.93,SSW,203,5.0,-999.0,73,0.00,,,0.00,,2017-02-25 12:20:00,
2017-02-25 07:26:00,40.5,33.0,28.94,WSW,248,7.0,-999.0,75,0.00,,,0.00,,2017-02-25 12:26:00,
2017-02-25 07:31:00,38.7,32.0,28.94,West,270,21.0,-999.0,78,0.00,,,0.00,,2017-02-25 12:31:00,
2017-02-25 07:37:00,38.2,32.0,28.94,WNW,293,8.0,26.0,81,0.00,,,0.00,,2017-02-25 12:37:00,
2017-02-25 07:42:00,38.2,32.0,28.95,West,270,13.0,-999.0,81,0.00,,,0.00,,2017-02-25 12:42:00,
2017-02-25 07:48:00,38.2,32.0,28.95,West,270,17.0,-999.0,78,0.00,,,0.00,,2017-02-25 12:48:00,
2017-02-25 07:53:00,38.4,31.0,28.96,West,270,10.0,-999.0,75,0.00,,,0.00,,2017-02-25 12:53:00,
2017-02-25 07:59:00,38.7,31.0,28.96,SW,225,14.0,-999.0,75,0.00,,,0.00,,2017-02-25 12:59:00,
2017-02-25 08:04:00,38.7,30.0,28.96,SSW,203,7.0,-999.0,73,0.00,,,0.00,,2017-02-25 13:04:00,
2017-02-25 08:09:00,38.7,30.0,28.96,SW,225,10.0,-999.0,71,0.00,,,0.00,,2017-02-25 13:09:00,
2017-02-25 08:15:00,38.7,30.0,28.96,WNW,293,11.0,-999.0,71,0.00,,,0.00,,2017-02-25 13:15:00,
2017-02-25 08:20:00,38.7,30.0,28.97,West,270,20.0,-999.0,71,0.00,,,0.00,,2017-02-25 13:20:00,
2017-02-25 08:25:00,37.4,28.0,28.97,West,270,17.0,27.0,70,0.00,,,0.00,,2017-02-25 13:25:00,
2017-02-25 08:31:00,36.9,28.0,28.98,WNW,293,12.0,35.0,70,0.00,,,0.00,,2017-02-25 13:31:00,
2017-02-25 08:36:00,36.7,27.0,28.99,SSE,158,10.0,22.0,69,0.00,,,0.00,,2017-02-25 13:36:00,
2017-02-25 08:42:00,36.7,27.0,28.99,SSW,203,8.0,22.0,68,0.00,,,0.00,,2017-02-25 13:42:00,
2017-02-25 08:47:00,36.5,26.0,29.00,South,180,10.0,-999.0,65,0.00,,,0.00,,2017-02-25 13:47:00,
2017-02-25 08:52:00,36.5,25.0,28.99,WNW,293,10.0,-999.0,65,0.00,,,0.00,,2017-02-25 13:52:00,
2017-02-25 08:57:00,36.5,26.0,29.00,West,270,10.0,-999.0,65,0.00,,,0.00,,2017-02-25 13:57:00,
2017-02-25 09:03:00,36.5,26.0,29.00,SW,225,8.0,-999.0,65,0.00,,,0.00,,2017-02-25 14:03:00,
2017-02-25 09:08:00,36.5,25.0,29.00,WSW,248,10.0,22.0,63,0.00,,,0.00,,2017-02-25 14:08:00,
2017-02-25 09:13:00,36.5,25.0,29.00,SW,225,13.0,-999.0,63,0.00,,,0.00,,2017-02-25 14:13:00,
2017-02-25 09:19:00,36.5,25.0,29.01,SW,225,8.0,-999.0,63,0.00,,,0.00,,2017-02-25 14:19:00,
2017-02-25 09:24:00,36.7,24.0,29.00,WSW,248,10.0,-999.0,61,0.00,,,0.00,,2017-02-25 14:24:00,
2017-02-25 09:30:00,37.0,24.0,29.01,South,180,15.0,-999.0,61,0.00,,,0.00,,2017-02-25 14:30:00,
2017-02-25 09:35:00,37.0,24.0,29.01,SW,225,12.0,-999.0,61,0.00,,,0.00,,2017-02-25 14:35:00,
2017-02-25 09:40:00,37.0,25.0,29.01,SSW,203,10.0,-999.0,61,0.00,,,0.00,,2017-02-25 14:40:00,
2017-02-25 09:46:00,37.2,25.0,29.01,SSW,203,4.0,-999.0,63,0.00,,,0.00,,2017-02-25 14:46:00,
2017-02-25 09:51:00,36.1,25.0,29.01,SSW,203,10.0,-999.0,63,0.00,,,0.00,,2017-02-25 14:51:00,
2017-02-25 09:57:00,36.2,25.0,29.02,West,270,5.0,-999.0,63,0.00,,,0.00,,2017-02-25 14:57:00,
2017-02-25 10:02:00,36.1,25.0,29.02,SSW,203,13.0,-999.0,63,0.00,,,0.00,,2017-02-25 15:02:00,
2017-02-25 10:07:00,35.7,25.0,29.02,SW,225,16.0,-999.0,65,0.00,,,0.00,,2017-02-25 15:07:00,
2017-02-25 10:13:00,35.1,25.0,29.03,SSW,203,11.0,-999.0,68,0.00,,,0.00,,2017-02-25 15:13:00,
2017-02-25 10:19:00,34.7,25.0,29.04,SW,225,7.0,-999.0,69,0.00,,,0.00,,2017-02-25 15:19:00,
2017-02-25 10:26:00,34.9,26.0,29.03,WSW,248,8.0,19.0,70,0.00,,,0.00,,2017-02-25 15:26:00,
2017-02-25 10:31:00,34.7,26.0,29.03,West,270,9.0,21.0,70,0.00,,,0.00,,2017-02-25 15:31:00,
2017-02-25 10:36:00,34.2,27.0,29.04,SW,225,5.0,19.0,75,0.00,,,0.00,,2017-02-25 15:36:00,
2017-02-25 10:42:00,33.8,27.0,29.04,SSW,203,4.0,-999.0,79,0.00,,,0.00,,2017-02-25 15:42:00,
2017-02-25 10:47:00,32.9,28.0,29.04,SW,225,7.0,-999.0,83,0.00,,,0.00,,2017-02-25 15:47:00,
2017-02-25 10:52:00,32.2,30.0,29.05,SW,225,7.0,-999.0,95,0.00,,,0.00,,2017-02-25 15:52:00,
2017-02-25 10:58:00,32.2,30.0,29.05,SSW,203,5.0,-999.0,95,0.00,,,0.00,,2017-02-25 15:58:00,
2017-02-25 11:03:00,33.0,31.0,29.06,West,270,8.0,-999.0,91,0.00,,,0.00,,2017-02-25 16:03:00,
2017-02-25 11:09:00,34.2,31.0,29.06,SW,225,10.0,-999.0,88,0.00,,,0.00,,2017-02-25 16:09:00,
2017-02-25 11:14:00,34.7,28.0,29.05,WNW,293,11.0,-999.0,78,0.00,,,0.00,,2017-02-25 16:14:00,
2017-02-25 11:20:00,33.8,25.0,29.06,West,270,17.0,-999.0,70,0.00,,,0.00,,2017-02-25 16:20:00,
2017-02-25 11:25:00,33.4,24.0,29.07,West,270,25.0,-999.0,69,0.03,,,0.03,,2017-02-25 16:25:00,
2017-02-25 11:30:00,34.0,24.0,29.07,West,270,13.0,25.0,68,0.03,,,0.03,,2017-02-25 16:30:00,
2017-02-25 11:36:00,34.2,25.0,29.07,WSW,248,12.0,-999.0,69,0.03,,,0.03,,2017-02-25 16:36:00,
2017-02-25 11:41:00,34.2,25.0,29.06,West,270,18.0,-999.0,69,0.03,,,0.03,,2017-02-25 16:41:00,
2017-02-25 11:46:00,34.2,25.0,29.07,WSW,248,5.0,21.0,69,0.03,,,0.03,,2017-02-25 16:46:00,
2017-02-25 11:53:00,33.5,24.0,29.08,West,270,11.0,-999.0,69,0.03,,,0.03,,2017-02-25 16:53:00,
2017-02-25 12:00:00,32.5,23.0,29.08,West,270,23.0,-999.0,70,0.00,,,0.03,,2017-02-25 17:00:00,
2017-02-25 12:06:00,32.5,23.0,29.08,West,270,17.0,-999.0,70,0.00,,,0.03,,2017-02-25 17:06:00,
2017-02-25 12:14:00,32.4,23.0,29.09,WSW,248,12.0,23.0,70,0.00,,,0.03,,2017-02-25 17:14:00,
2017-02-25 12:19:00,32.4,23.0,29.09,West,270,11.0,23.0,69,0.00,,,0.03,,2017-02-25 17:19:00,
2017-02-25 12:29:00,31.9,23.0,29.10,NNW,338,12.0,-999.0,70,0.00,,,0.03,,2017-02-25 17:29:00,
2017-02-25 12:34:00,31.6,23.0,29.10,West,270,21.0,-999.0,70,0.00,,,0.03,,2017-02-25 17:34:00,
2017-02-25 12:40:00,31.6,23.0,29.11,West,270,10.0,21.0,71,0.00,,,0.03,,2017-02-25 17:40:00,
2017-02-25 12:46:00,31.2,23.0,29.11,West,270,8.0,-999.0,71,0.00,,,0.03,,2017-02-25 17:46:00,
2017-02-25 12:52:00,30.8,22.0,29.12,SW,225,10.0,24.0,71,0.00,,,0.03,,2017-02-25 17:52:00,
2017-02-25 12:58:00,31.1,22.0,29.12,SSW,203,16.0,-999.0,70,0.00,,,0.03,,2017-02-25 17:58:00,
2017-02-25 13:03:00,31.1,22.0,29.12,West,270,20.0,-999.0,70,0.00,,,0.03,,2017-02-25 18:03:00,
2017-02-25 13:09:00,31.1,22.0,29.12,WSW,248,8.0,20.0,70,0.00,,,0.03,,2017-02-25 18:09:00,
2017-02-25 13:14:00,31.2,22.0,29.12,West,270,9.0,-999.0,69,0.00,,,0.03,,2017-02-25 18:14:00,
2017-02-25 13:19:00,31.2,22.0,29.12,West,270,6.0,22.0,69,0.00,,,0.03,,2017-02-25 18:19:00,
2017-02-25 13:25:00,31.2,22.0,29.11,West,270,8.0,-999.0,69,0.00,,,0.03,,2017-02-25 18:25:00,
2017-02-25 13:30:00,30.8,21.0,29.12,WSW,248,11.0,24.0,68,0.00,,,0.03,,2017-02-25 18:30:00,
2017-02-25 13:35:00,30.7,21.0,29.12,West,270,11.0,24.0,68,0.00,,,0.03,,2017-02-25 18:35:00,
2017-02-25 13:41:00,30.5,21.0,29.12,West,270,17.0,-999.0,69,0.00,,,0.03,,2017-02-25 18:41:00,
2017-02-25 13:47:00,30.0,20.0,29.13,SW,225,15.0,-999.0,68,0.00,,,0.03,,2017-02-25 18:47:00,
2017-02-25 13:52:00,30.3,21.0,29.13,WSW,248,9.0,-999.0,68,0.00,,,0.03,,2017-02-25 18:52:00,
2017-02-25 13:58:00,30.3,20.0,29.13,West,270,10.0,-999.0,66,0.00,,,0.03,,2017-02-25 18:58:00,
2017-02-25 14:03:00,31.2,20.0,29.13,West,270,8.0,22.0,65,0.00,,,0.03,,2017-02-25 19:03:00,
2017-02-25 14:08:00,32.2,21.0,29.14,WNW,293,8.0,-999.0,63,0.00,,,0.03,,2017-02-25 19:08:00,
2017-02-25 14:13:00,31.5,20.0,29.14,SW,225,7.0,-999.0,63,0.00,,,0.03,,2017-02-25 19:13:00,
2017-02-25 14:19:00,31.1,19.0,29.15,SW,225,9.0,-999.0,61,0.00,,,0.03,,2017-02-25 19:19:00,
2017-02-25 14:24:00,31.2,20.0,29.14,SSW,203,16.0,-999.0,63,0.00,,,0.03,,2017-02-25 19:24:00,
2017-02-25 14:30:00,30.5,19.0,29.15,WSW,248,12.0,-999.0,63,0.00,,,0.03,,2017-02-25 19:30:00,
2017-02-25 14:35:00,30.0,19.0,29.15,WSW,248,5.0,19.0,65,0.00,,,0.03,,2017-02-25 19:35:00,
2017-02-25 14:41:00,30.1,19.0,29.16,SW,225,4.0,-999.0,65,0.00,,,0.03,,2017-02-25 19:41:00,
2017-02-25 14:47:00,30.5,19.0,29.16,West,270,16.0,-999.0,63,0.00,,,0.03,,2017-02-25 19:47:00,
2017-02-25 14:53:00,30.0,18.0,29.17,SSW,203,12.0,-999.0,61,0.00,,,0.03,,2017-02-25 19:53:00,
2017-02-25 14:58:00,30.0,18.0,29.17,WNW,293,8.0,21.0,61,0.00,,,0.03,,2017-02-25 19:58:00,
2017-02-25 15:04:00,29.8,17.0,29.17,West,270,5.0,-999.0,61,0.00,,,0.03,,2017-02-25 20:04:00,
2017-02-25 15:09:00,29.6,18.0,29.17,SSW,203,12.0,-999.0,61,0.00,,,0.03,,2017-02-25 20:09:00,
2017-02-25 15:16:00,29.8,18.0,29.17,SW,225,9.0,20.0,61,0.00,,,0.03,,2017-02-25 20:16:00,
2017-02-25 15:21:00,29.8,18.0,29.17,West,270,16.0,-999.0,61,0.00,,,0.03,,2017-02-25 20:21:00,
2017-02-25 15:27:00,29.8,18.0,29.18,SSW,203,9.0,-999.0,61,0.00,,,0.03,,2017-02-25 20:27:00,
2017-02-25 15:32:00,29.6,18.0,29.18,West,270,5.0,-999.0,63,0.00,,,0.03,,2017-02-25 20:32:00,
2017-02-25 15:37:00,29.6,19.0,29.18,WSW,248,13.0,-999.0,63,0.00,,,0.03,,2017-02-25 20:37:00,
2017-02-25 15:43:00,29.2,18.0,29.19,West,270,11.0,-999.0,63,0.00,,,0.03,,2017-02-25 20:43:00,
2017-02-25 15:49:00,29.2,18.0,29.19,West,270,16.0,-999.0,63,0.00,,,0.03,,2017-02-25 20:49:00,
2017-02-25 15:54:00,29.5,18.0,29.19,SSW,203,5.0,19.0,63,0.00,,,0.03,,2017-02-25 20:54:00,
2017-02-25 16:00:00,28.8,18.0,29.19,SW,225,10.0,-999.0,65,0.00,,,0.03,,2017-02-25 21:00:00,
2017-02-25 16:06:00,28.8,18.0,29.20,West,270,9.0,-999.0,65,0.00,,,0.03,,2017-02-25 21:06:00,
2017-02-25 16:11:00,28.7,18.0,29.20,WSW,248,9.0,-999.0,63,0.00,,,0.03,,2017-02-25 21:11:00,
2017-02-25 16:17:00,28.8,18.0,29.20,WNW,293,16.0,-999.0,63,0.00,,,0.03,,2017-02-25 21:17:00,
2017-02-25 16:23:00,28.7,18.0,29.21,West,270,18.0,-999.0,63,0.00,,,0.03,,2017-02-25 21:23:00,
2017-02-25 16:24:00,28.7,18.0,29.21,West,270,16.0,-999.0,63,0.00,,,0.03,,2017-02-25 21:24:00,
2017-02-25 16:29:00,28.7,18.0,29.20,West,270,15.0,-999.0,63,0.00,,,0.03,,2017-02-25 21:29:00,
2017-02-25 16:35:00,28.3,18.0,29.21,West,270,13.0,-999.0,65,0.00,,,0.03,,2017-02-25 21:35:00,
2017-02-25 16:40:00,28.3,18.0,29.21,WSW,248,15.0,-999.0,65,0.00,,,0.03,,2017-02-25 21:40:00,
2017-02-25 16:47:00,28.3,18.0,29.22,West,270,9.0,-999.0,66,0.00,,,0.03,,2017-02-25 21:47:00,
2017-02-25 16:52:00,28.3,18.0,29.22,West,270,9.0,-999.0,65,0.00,,,0.03,,2017-02-25 21:52:00,
2017-02-25 16:57:00,28.2,18.0,29.23,West,270,13.0,-999.0,65,0.00,,,0.03,,2017-02-25 21:57:00,
2017-02-25 17:02:00,28.2,18.0,29.23,West,270,11.0,-999.0,65,0.00,,,0.03,,2017-02-25 22:02:00,
2017-02-25 17:08:00,28.3,18.0,29.23,WSW,248,8.0,-999.0,65,0.00,,,0.03,,2017-02-25 22:08:00,
2017-02-25 17:13:00,28.3,17.0,29.23,West,270,10.0,-999.0,63,0.00,,,0.03,,2017-02-25 22:13:00,
2017-02-25 17:19:00,28.6,17.0,29.24,West,270,5.0,-999.0,63,0.00,,,0.03,,2017-02-25 22:19:00,
2017-02-25 17:24:00,28.7,18.0,29.23,West,270,6.0,-999.0,63,0.00,,,0.03,,2017-02-25 22:24:00,
2017-02-25 17:29:00,28.7,18.0,29.24,West,270,7.0,-999.0,63,0.00,,,0.03,,2017-02-25 22:29:00,
2017-02-25 17:34:00,28.7,17.0,29.24,West,270,10.0,-999.0,63,0.00,,,0.03,,2017-02-25 22:34:00,
2017-02-25 17:40:00,28.7,17.0,29.24,West,270,11.0,-999.0,63,0.00,,,0.03,,2017-02-25 22:40:00,
2017-02-25 17:45:00,28.3,17.0,29.24,West,270,13.0,-999.0,63,0.00,,,0.03,,2017-02-25 22:45:00,
2017-02-25 17:51:00,28.3,18.0,29.24,West,270,11.0,-999.0,65,0.00,,,0.03,,2017-02-25 22:51:00,
2017-02-25 17:57:00,28.3,18.0,29.25,West,270,15.0,-999.0,65,0.00,,,0.03,,2017-02-25 22:57:00,
2017-02-25 18:02:00,28.3,18.0,29.25,West,270,10.0,-999.0,65,0.00,,,0.03,,2017-02-25 23:02:00,
2017-02-25 18:08:00,28.6,18.0,29.24,WNW,293,6.0,-999.0,65,0.00,,,0.03,,2017-02-25 23:08:00,
2017-02-25 18:13:00,28.8,18.0,29.25,West,270,4.0,-999.0,65,0.00,,,0.03,,2017-02-25 23:13:00,